Starlink 36489

operational
NORAD ID: 67328 Int'l Des: 2026-002 Owner: SPXS Country: US Constellation: starlink
LEOCIRCULAR

关于 Starlink 36489

正在加载描述...

实时位置

正在加载3D地球...

即将过境

高度历史

Altitude vs Time

uPlot chart will show altitude changes over time

两行轨道根数

1 67328U 26002Z 26074.61925436 .00024048 00000-0 88034-3 0 9995
2 67328 42.9946 291.9552 0000271 297.6290 62.4534 15.27587387 12145
Epoch: Mar 15, 2026 • Age: 7 hours

当前状态

高度 482.5 km
速度 7.63 km/s
星下点 2.78°N, 34.77°W
发射日期 Jan 4, 2026
运行时间 0.1 years
类型 internet

技术详情

分类 Payload
质量 575.00 kg
干质量 530.00 kg
总质量 575.00 kg
长度 0.30 m
直径 4.10 m
跨度 29.00 m
形状 Box + pan
制造商 SPXS
平台类型 Starlink V2MO
阶段状态 In Orbit
所有者/国家 SPXS/US

大型星座

Loading constellations...